TAP35MT LPPR-LPPT

Flight info

Callsign TAP35MT
Flight time 0h 37m
Altitude 33000
Route MANIK DCT ABRIL DCT XAMAX
Aircraft A320/M-SDE3FGHIRWY/LB1

Departure

Time 2026-05-05 19:38
Airport Francisco de Sá Carneiro Airport (LPPR)

Arrival

Time 2026-05-05 20:15
Airport Lisbon Humberto Delgado Airport (LPPT)
Time Latitude Longitude Altitude Speed Heading
2026-05-05 19:09 41.23641 -8.67234 245 ft 0 kts 79°
2026-05-05 19:29 41.23639 -8.67244 245 ft 4 kts 80°
2026-05-05 19:29 41.23636 -8.67279 244 ft 4 kts 88°
2026-05-05 19:29 41.23638 -8.67314 243 ft 4 kts 111°
2026-05-05 19:30 41.23650 -8.67336 242 ft 2 kts 168°
2026-05-05 19:30 41.23652 -8.67337 242 ft 0 kts 168°
2026-05-05 19:32 41.23616 -8.67327 242 ft 11 kts 171°
2026-05-05 19:33 41.23544 -8.67362 241 ft 11 kts 206°
2026-05-05 19:33 41.23472 -8.67383 240 ft 11 kts 168°
2026-05-05 19:33 41.23402 -8.67363 239 ft 10 kts 168°
2026-05-05 19:33 41.23341 -8.67399 237 ft 11 kts 238°
2026-05-05 19:34 41.23323 -8.67502 236 ft 12 kts 258°
2026-05-05 19:34 41.23320 -8.67520 235 ft 0 kts 258°
2026-05-05 19:35 41.23319 -8.67524 235 ft 3 kts 258°
2026-05-05 19:36 41.23302 -8.67635 239 ft 15 kts 258°
2026-05-05 19:36 41.23298 -8.67728 238 ft 7 kts 309°
2026-05-05 19:36 41.23330 -8.67739 238 ft 0 kts 349°
2026-05-05 19:36 41.23332 -8.67740 238 ft 0 kts 349°
2026-05-05 19:37 41.23337 -8.67741 238 ft 3 kts 349°
2026-05-05 19:37 41.23504 -8.67784 235 ft 63 kts 348°
2026-05-05 19:37 41.24224 -8.67980 222 ft 143 kts 349°
2026-05-05 19:37 41.25340 -8.68262 660 ft 169 kts 348°
2026-05-05 19:38 41.26521 -8.68556 1584 ft 176 kts 349°
2026-05-05 19:38 41.27749 -8.68855 2557 ft 182 kts 349°
2026-05-05 19:38 41.29027 -8.69170 3455 ft 194 kts 348°
2026-05-05 19:38 41.30426 -8.69543 4235 ft 217 kts 348°
2026-05-05 19:39 41.31973 -8.69962 5020 ft 231 kts 348°
2026-05-05 19:39 41.33555 -8.70388 5791 ft 233 kts 348°
2026-05-05 19:39 41.35150 -8.70817 6572 ft 235 kts 347°
2026-05-05 19:39 41.36758 -8.71247 7317 ft 237 kts 347°
2026-05-05 19:40 41.38380 -8.71680 8078 ft 239 kts 348°
2026-05-05 19:40 41.39956 -8.72382 8849 ft 242 kts 328°
2026-05-05 19:40 41.41189 -8.73932 9545 ft 254 kts 304°
2026-05-05 19:40 41.41785 -8.76212 10077 ft 274 kts 276°
2026-05-05 19:41 41.41515 -8.78802 10580 ft 294 kts 254°
2026-05-05 19:41 41.40528 -8.81236 11072 ft 314 kts 234°
2026-05-05 19:41 41.38841 -8.83212 11586 ft 334 kts 213°
2026-05-05 19:41 41.36605 -8.84278 12104 ft 352 kts 190°
2026-05-05 19:42 41.34115 -8.84137 12627 ft 367 kts 171°
2026-05-05 19:42 41.31577 -8.83476 13155 ft 377 kts 170°
2026-05-05 19:42 41.28977 -8.82773 13695 ft 386 kts 169°
2026-05-05 19:42 41.26319 -8.82046 14196 ft 394 kts 170°
2026-05-05 19:43 41.23604 -8.81308 14681 ft 402 kts 170°
2026-05-05 19:43 41.20838 -8.80566 15162 ft 409 kts 171°
2026-05-05 19:43 41.18024 -8.79820 15662 ft 415 kts 171°
2026-05-05 19:43 41.15176 -8.79071 16166 ft 420 kts 171°
2026-05-05 19:44 41.12295 -8.78317 16678 ft 424 kts 172°
2026-05-05 19:44 41.09384 -8.77558 17204 ft 428 kts 172°
2026-05-05 19:44 41.06444 -8.76783 17737 ft 432 kts 171°
2026-05-05 19:44 41.03533 -8.75690 18280 ft 437 kts 165°
2026-05-05 19:45 41.00622 -8.74490 18763 ft 440 kts 166°
2026-05-05 19:45 40.97693 -8.73282 19229 ft 442 kts 166°
2026-05-05 19:45 40.94751 -8.72069 19712 ft 444 kts 166°
2026-05-05 19:45 40.91796 -8.70851 20212 ft 446 kts 166°
2026-05-05 19:46 40.88825 -8.69629 20710 ft 447 kts 166°
2026-05-05 19:46 40.85850 -8.68407 21218 ft 449 kts 166°
2026-05-05 19:46 40.82865 -8.67185 21735 ft 449 kts 167°
2026-05-05 19:46 40.79875 -8.65967 22241 ft 450 kts 167°
2026-05-05 19:47 40.76883 -8.64750 22774 ft 450 kts 167°
2026-05-05 19:47 40.73886 -8.63532 23319 ft 450 kts 167°
2026-05-05 19:47 40.70892 -8.62317 23838 ft 450 kts 168°
2026-05-05 19:47 40.67861 -8.61460 24297 ft 443 kts 177°
2026-05-05 19:48 40.64799 -8.61061 24772 ft 441 kts 180°
2026-05-05 19:48 40.61747 -8.60691 25252 ft 440 kts 180°
2026-05-05 19:48 40.58742 -8.60332 25721 ft 439 kts 180°
2026-05-05 19:48 40.55706 -8.59970 26210 ft 438 kts 180°
2026-05-05 19:49 40.52679 -8.59610 26717 ft 436 kts 180°
2026-05-05 19:49 40.50635 -8.59365 27064 ft 435 kts 180°
2026-05-05 19:49 40.46651 -8.58883 27749 ft 433 kts 180°
2026-05-05 19:49 40.43658 -8.58518 28292 ft 431 kts 180°
2026-05-05 19:50 40.40680 -8.58154 28840 ft 429 kts 180°
2026-05-05 19:50 40.37718 -8.57794 29408 ft 426 kts 180°
2026-05-05 19:50 40.34768 -8.57437 29964 ft 424 kts 180°
2026-05-05 19:50 40.31842 -8.57084 30471 ft 421 kts 180°
2026-05-05 19:51 40.28937 -8.56733 30968 ft 418 kts 180°
2026-05-05 19:51 40.26055 -8.56385 31469 ft 415 kts 181°
2026-05-05 19:51 40.23196 -8.56039 31978 ft 411 kts 181°
2026-05-05 19:51 40.20356 -8.55693 32498 ft 407 kts 181°
2026-05-05 19:52 40.17546 -8.55352 32955 ft 406 kts 181°
2026-05-05 19:52 40.11826 -8.54677 33084 ft 421 kts 181°
2026-05-05 19:53 40.05862 -8.53980 33081 ft 439 kts 181°
2026-05-05 19:53 39.99636 -8.53281 32630 ft 462 kts 181°
2026-05-05 19:53 39.96396 -8.52996 32114 ft 469 kts 182°
2026-05-05 19:54 39.93124 -8.52742 31581 ft 473 kts 182°
2026-05-05 19:54 39.89834 -8.52497 31077 ft 475 kts 182°
2026-05-05 19:54 39.86529 -8.52245 30578 ft 477 kts 181°
2026-05-05 19:54 39.83209 -8.51980 30087 ft 479 kts 181°
2026-05-05 19:55 39.79876 -8.51713 29513 ft 480 kts 182°
2026-05-05 19:55 39.76574 -8.52002 28952 ft 471 kts 196°
2026-05-05 19:55 39.73490 -8.53303 28402 ft 463 kts 210°
2026-05-05 19:55 39.70703 -8.55367 27850 ft 462 kts 215°
2026-05-05 19:56 39.67953 -8.57536 27316 ft 464 kts 215°
2026-05-05 19:56 39.65195 -8.59721 26794 ft 466 kts 215°
2026-05-05 19:56 39.62421 -8.61916 26286 ft 468 kts 215°
2026-05-05 19:56 39.59635 -8.64116 25784 ft 470 kts 215°
2026-05-05 19:57 39.56828 -8.66324 25297 ft 472 kts 215°
2026-05-05 19:57 39.54964 -8.67788 24975 ft 474 kts 215°
2026-05-05 19:57 39.51179 -8.70755 24334 ft 477 kts 215°
2026-05-05 19:57 39.48339 -8.72974 23857 ft 476 kts 214°
2026-05-05 19:58 39.45506 -8.75180 23339 ft 474 kts 214°
2026-05-05 19:58 39.42686 -8.77371 22795 ft 472 kts 214°
2026-05-05 19:58 39.39962 -8.79687 22256 ft 465 kts 223°
2026-05-05 19:58 39.37723 -8.82651 21735 ft 459 kts 231°
2026-05-05 19:59 39.35613 -8.85730 21212 ft 456 kts 231°
2026-05-05 19:59 39.33528 -8.88800 20718 ft 453 kts 232°
2026-05-05 19:59 39.31466 -8.91844 20225 ft 445 kts 232°
2026-05-05 19:59 39.29481 -8.94770 19748 ft 434 kts 232°
2026-05-05 20:00 39.27513 -8.97660 19253 ft 424 kts 232°
2026-05-05 20:00 39.25586 -9.00482 18791 ft 415 kts 232°
2026-05-05 20:00 39.23696 -9.03248 18319 ft 407 kts 232°
2026-05-05 20:00 39.21840 -9.05962 17760 ft 400 kts 232°
2026-05-05 20:01 39.20013 -9.08632 17234 ft 394 kts 232°
2026-05-05 20:01 39.18212 -9.11259 16715 ft 389 kts 232°
2026-05-05 20:01 39.16433 -9.13853 16205 ft 384 kts 231°
2026-05-05 20:01 39.14670 -9.16418 15705 ft 380 kts 231°
2026-05-05 20:02 39.12927 -9.18952 15215 ft 376 kts 231°
2026-05-05 20:02 39.11199 -9.21461 14729 ft 373 kts 231°
2026-05-05 20:02 39.09251 -9.23648 14248 ft 375 kts 215°
2026-05-05 20:02 39.06856 -9.24982 13773 ft 377 kts 198°
2026-05-05 20:03 39.04325 -9.25831 13232 ft 375 kts 197°
2026-05-05 20:03 39.01809 -9.26651 12714 ft 371 kts 197°
2026-05-05 20:03 38.99316 -9.27451 12200 ft 368 kts 196°
2026-05-05 20:03 38.96846 -9.28244 11688 ft 364 kts 197°
2026-05-05 20:04 38.94396 -9.29035 11195 ft 361 kts 196°
2026-05-05 20:04 38.92021 -9.29805 10699 ft 352 kts 196°
2026-05-05 20:04 38.89697 -9.30561 10224 ft 338 kts 197°
2026-05-05 20:04 38.87461 -9.31288 9715 ft 326 kts 197°
2026-05-05 20:05 38.85293 -9.31988 9190 ft 316 kts 197°
2026-05-05 20:05 38.83189 -9.32668 8827 ft 308 kts 197°
2026-05-05 20:05 38.81135 -9.33335 8567 ft 301 kts 196°
2026-05-05 20:05 38.79127 -9.33990 8312 ft 294 kts 197°
2026-05-05 20:06 38.77164 -9.34632 8077 ft 288 kts 196°
2026-05-05 20:06 38.75239 -9.35259 7825 ft 282 kts 197°
2026-05-05 20:06 38.73356 -9.35871 7567 ft 276 kts 197°
2026-05-05 20:06 38.71513 -9.36468 7343 ft 270 kts 195°
2026-05-05 20:07 38.69714 -9.37048 7128 ft 265 kts 197°
2026-05-05 20:07 38.67939 -9.37623 6861 ft 261 kts 196°
2026-05-05 20:07 38.66190 -9.38191 6618 ft 259 kts 196°
2026-05-05 20:07 38.64449 -9.38756 6369 ft 257 kts 197°
2026-05-05 20:08 38.62720 -9.39315 6117 ft 255 kts 196°
2026-05-05 20:08 38.61021 -9.39862 5863 ft 254 kts 195°
2026-05-05 20:08 38.59283 -9.40385 5604 ft 253 kts 188°
2026-05-05 20:08 38.57544 -9.40235 5351 ft 253 kts 161°
2026-05-05 20:09 38.56053 -9.39165 5101 ft 249 kts 134°
2026-05-05 20:09 38.55070 -9.37386 4853 ft 243 kts 108°
2026-05-05 20:09 38.54774 -9.35312 4590 ft 235 kts 83°
2026-05-05 20:09 38.55152 -9.33338 4325 ft 227 kts 60°
2026-05-05 20:10 38.55901 -9.31568 4097 ft 226 kts 57°
2026-05-05 20:10 38.56653 -9.29810 4009 ft 225 kts 57°
2026-05-05 20:10 38.57403 -9.28049 4019 ft 227 kts 57°
2026-05-05 20:10 38.58153 -9.26276 4022 ft 227 kts 57°
2026-05-05 20:11 38.58935 -9.24540 4007 ft 223 kts 48°
2026-05-05 20:11 38.60076 -9.23250 3844 ft 218 kts 25°
2026-05-05 20:11 38.61455 -9.22480 3584 ft 216 kts 20°
2026-05-05 20:11 38.62839 -9.21750 3303 ft 215 kts 20°
2026-05-05 20:12 38.64218 -9.21018 3009 ft 214 kts 20°
2026-05-05 20:12 38.65587 -9.20290 2727 ft 213 kts 20°
2026-05-05 20:12 38.66922 -9.19577 2438 ft 201 kts 19°
2026-05-05 20:12 38.68171 -9.18911 2174 ft 190 kts 19°
2026-05-05 20:13 38.69362 -9.18276 1914 ft 181 kts 19°
2026-05-05 20:13 38.70461 -9.17689 1710 ft 167 kts 18°
2026-05-05 20:13 38.71483 -9.17143 1470 ft 151 kts 18°
2026-05-05 20:13 38.72409 -9.16649 1285 ft 141 kts 19°
2026-05-05 20:14 38.73311 -9.16169 1084 ft 142 kts 19°
2026-05-05 20:14 38.74245 -9.15666 889 ft 145 kts 20°
2026-05-05 20:14 38.75166 -9.15142 651 ft 145 kts 18°
2026-05-05 20:14 38.76088 -9.14681 532 ft 139 kts 20°
2026-05-05 20:15 38.76688 -9.14358 412 ft 135 kts 17°
2026-05-05 20:15 38.77725 -9.13809 362 ft 102 kts 22°
2026-05-05 20:15 38.78166 -9.13570 370 ft 33 kts 23°
2026-05-05 20:15 38.78292 -9.13470 366 ft 31 kts 47°
2026-05-05 20:16 38.78374 -9.13327 368 ft 16 kts 86°
2026-05-05 20:16 38.78289 -9.13285 360 ft 16 kts 200°
2026-05-05 20:16 38.78189 -9.13332 359 ft 15 kts 203°
2026-05-05 20:16 38.78097 -9.13382 362 ft 14 kts 202°
2026-05-05 20:17 38.78008 -9.13411 356 ft 14 kts 174°
2026-05-05 20:17 38.77904 -9.13384 350 ft 17 kts 168°
2026-05-05 20:17 38.77784 -9.13349 345 ft 19 kts 167°
2026-05-05 20:17 38.77642 -9.13321 336 ft 21 kts 179°
2026-05-05 20:18 38.77520 -9.13304 337 ft 14 kts 168°
2026-05-05 20:18 38.77427 -9.13279 338 ft 13 kts 168°
2026-05-05 20:18 38.77343 -9.13258 338 ft 12 kts 170°
2026-05-05 20:18 38.77266 -9.13241 338 ft 11 kts 171°
2026-05-05 20:19 38.77198 -9.13224 333 ft 9 kts 168°
2026-05-05 20:19 38.77140 -9.13209 338 ft 8 kts 168°
2026-05-05 20:19 38.77092 -9.13196 337 ft 6 kts 168°
2026-05-05 20:19 38.77054 -9.13186 337 ft 5 kts 168°
2026-05-05 20:20 38.77022 -9.13176 338 ft 4 kts 156°
2026-05-05 20:20 38.77019 -9.13128 334 ft 7 kts 76°
2026-05-05 20:20 38.77026 -9.13092 335 ft 3 kts 76°
2026-05-05 20:20 38.77027 -9.13088 336 ft 0 kts 76°